Weather History for Zapata, TX

Change the Weather History Date:

Tuesday, February 5, 2013

  Actual Average (KLRD) Record (KLRD)
Temperature  
Mean Temperature 72 °F 59 °F  
Max Temperature 89 °F 70 °F 95 °F (2008)
Min Temperature 54 °F 48 °F 27 °F (1989)
Degree Days  
Heating Degree Days 0 7  
Month to date heating degree days 38  
Since 1 July heating degree days 717  
Cooling Degree Days 6 2  
Month to date cooling degree days 6  
Year to date cooling degree days 34  
Growing Degree Days 22 (Base 50)    
Moisture  
Dew Point 49 °F    
Average Humidity 48    
Maximum Humidity 91    
Minimum Humidity 19    
Precipitation  
Precipitation 0.22 in 0.03 in 1.17 in (1987)
Month to date precipitation 0.16  
Year to date precipitation 1.06  
Sea Level Pressure  
Sea Level Pressure 29.88 in    
Wind  
Wind Speed 3 mph (ESE)    
Max Wind Speed 24 mph    
Max Gust Speed 43 mph    
Visibility 10 miles    
Events Rain , Thunderstorm    
T = Trace of Precipitation, MM = Missing Value Source: NWS Daily Summary

Daily Weather History Graph

Daily Weather History Graph

Search for Another Location

Airport:

Trip Planner

Search our weather history database for the weather conditions in past years. The results will help you decide how hot, cold, wet, or windy it might be!

Date:

Astronomy

Feb. 05, 2013 Rise Set
Actual Time 7:20 AM CST 6:22 PM CST
Civil Twilight 6:56 AM CST 6:46 PM CST
Nautical Twilight 6:28 AM CST 7:14 PM CST
Astronomical Twilight 6:01 AM CST 7:41 PM CST
Moon 2:54 AM CST (2/5) 1:51 PM CST (2/5)
Length of Visible Light 11h 50m
Length of Day
11h 02m
Waning Crescent, 26% of the Moon is Illuminated
Feb 5
Waning Crescent
Feb 10
New
Feb 17
First Quarter
Feb 25
Full
Mar 4
Last Quarter

Hourly Weather History & Observations

Time (CST) Temp. Dew Point Humidity Pressure Visibility Wind Dir Wind Speed Gust Speed Precip Events Conditions
12:15 AM 66.2 °F 48.9 °F 54% 29.85 in 10.0 mi East 5.8 mph - N/A   Clear
1:15 AM 61.9 °F 48.7 °F 62% 29.86 in 10.0 mi Calm Calm - N/A   Clear
1:35 AM 59.4 °F 46.8 °F 63% 29.86 in 10.0 mi Calm Calm - N/A   Clear
2:15 AM 56.8 °F 44.8 °F 64% 29.86 in 10.0 mi Calm Calm - N/A   Clear
3:15 AM 59.0 °F 49.8 °F 72% 29.86 in 10.0 mi Calm Calm - N/A   Clear
3:35 AM 58.5 °F 50.4 °F 74% 29.86 in 10.0 mi Calm Calm - N/A   Clear
4:15 AM 56.8 °F 49.5 °F 76% 29.86 in 10.0 mi NE 3.5 mph - N/A   Clear
4:55 AM 55.4 °F 47.3 °F 74% 29.87 in 10.0 mi Calm Calm - N/A   Clear
5:15 AM 55.4 °F 48.0 °F 76% 29.87 in 10.0 mi Calm Calm - N/A   Clear
5:55 AM 54.9 °F 47.5 °F 76% 29.88 in 10.0 mi Calm Calm - N/A   Clear
6:35 AM 55.9 °F 48.7 °F 77% 29.90 in 10.0 mi Calm Calm - N/A   Clear
6:55 AM 56.1 °F 50.4 °F 81% 29.89 in 10.0 mi SSE 4.6 mph - N/A   Clear
7:35 AM 56.1 °F 51.4 °F 84% 29.92 in 10.0 mi Calm Calm - N/A   Clear
7:55 AM 57.2 °F 52.2 °F 83% 29.93 in 10.0 mi Calm Calm - N/A   Clear
8:15 AM 60.3 °F 54.3 °F 81% 29.93 in 10.0 mi Calm Calm - N/A   Clear
8:35 AM 63.0 °F 55.6 °F 77% 29.94 in 10.0 mi Calm Calm - N/A   Clear
8:55 AM 66.0 °F 56.7 °F 72% 29.94 in 10.0 mi Calm Calm - N/A   Clear
9:15 AM 68.2 °F 57.2 °F 68% 29.94 in 10.0 mi Calm Calm - N/A   Clear
9:35 AM 71.2 °F 57.4 °F 61% 29.94 in 10.0 mi Calm Calm - N/A   Clear
9:55 AM 73.8 °F 57.4 °F 56% 29.95 in 10.0 mi Calm Calm - N/A   Clear
10:15 AM 75.6 °F 57.0 °F 52% 29.95 in 10.0 mi Calm Calm - N/A   Clear
10:35 AM 78.6 °F 55.8 °F 45% 29.95 in 10.0 mi Calm Calm - N/A   Clear
10:55 AM 79.3 °F 55.0 °F 43% 29.95 in 10.0 mi Calm Calm - N/A   Clear
11:15 AM 82.4 °F 52.7 °F 36% 29.95 in 10.0 mi Calm Calm - N/A   Clear
11:35 AM 83.1 °F 51.1 °F 33% 29.94 in 10.0 mi Calm Calm - N/A   Clear
11:55 AM 83.3 °F 48.0 °F 29% 29.94 in 10.0 mi Calm Calm - N/A   Clear
12:15 PM 83.8 °F 48.2 °F 29% 29.93 in 10.0 mi West 3.5 mph - N/A   Clear
12:35 PM 86.4 °F 45.3 °F 24% 29.92 in 10.0 mi East 8.1 mph - N/A   Clear
12:55 PM 87.1 °F 44.6 °F 23% 29.91 in 10.0 mi Calm Calm - N/A   Clear
1:15 PM 87.3 °F 44.1 °F 22% 29.90 in 10.0 mi Calm Calm - N/A   Clear
1:35 PM 88.0 °F 41.7 °F 20% 29.88 in 10.0 mi ENE 3.5 mph - N/A   Clear
1:55 PM 89.1 °F 42.3 °F 19% 29.86 in 10.0 mi SE 8.1 mph - N/A   Clear
2:15 PM 88.9 °F 42.3 °F 20% 29.85 in 10.0 mi East 4.6 mph - N/A   Clear
2:35 PM 88.7 °F 42.6 °F 20% 29.84 in 10.0 mi South 4.6 mph - N/A   Clear
2:55 PM 88.2 °F 42.3 °F 20% 29.83 in 10.0 mi East 4.6 mph - N/A   Clear
3:15 PM 88.3 °F 42.1 °F 20% 29.82 in 10.0 mi SSE 5.8 mph - N/A   Clear
3:35 PM 88.5 °F 41.5 °F 19% 29.82 in 10.0 mi SE 3.5 mph - N/A   Clear
3:55 PM 87.8 °F 41.7 °F 20% 29.81 in 10.0 mi ESE 4.6 mph - N/A   Clear
4:15 PM 87.8 °F 41.7 °F 20% 29.81 in 10.0 mi ESE 3.5 mph - N/A   Clear
4:35 PM 87.8 °F 43.7 °F 21% 29.81 in 10.0 mi South 6.9 mph - N/A   Clear
4:55 PM 87.4 °F 43.3 °F 21% 29.81 in 10.0 mi SSE 4.6 mph - N/A   Clear
5:15 PM 88.7 °F 42.1 °F 20% 29.81 in 10.0 mi ESE 10.4 mph - N/A   Clear
5:35 PM 87.1 °F 41.9 °F 20% 29.81 in 10.0 mi ESE 5.8 mph - N/A   Clear
5:55 PM 87.1 °F 42.8 °F 21% 29.81 in 10.0 mi SE 8.1 mph - N/A   Clear
6:15 PM 86.2 °F 42.4 °F 22% 29.82 in 10.0 mi SE 3.5 mph - N/A   Clear
6:35 PM 84.4 °F 43.2 °F 23% 29.82 in 10.0 mi ESE 3.5 mph - N/A   Clear
6:55 PM 82.6 °F 43.7 °F 25% 29.82 in 10.0 mi East 5.8 mph - N/A   Clear
7:15 PM 82.6 °F 42.4 °F 24% 29.83 in 10.0 mi ESE 5.8 mph - N/A   Clear
7:35 PM 82.2 °F 41.9 °F 24% 29.83 in 10.0 mi SE 5.8 mph - N/A   Clear
7:55 PM 81.5 °F 42.1 °F 25% 29.83 in 10.0 mi SE 8.1 mph - N/A   Clear
9:15 PM 78.3 °F 55.4 °F 45% 29.83 in 10.0 mi ESE 10.4 mph 19.6 mph N/A   Clear
9:55 PM 76.5 °F 58.3 °F 53% 29.82 in 10.0 mi ESE 16.1 mph 20.7 mph N/A   Clear
10:15 PM 74.5 °F 56.5 °F 53% 29.96 in 10.0 mi West 24.2 mph 35.7 mph N/A Rain , Thunderstorm Light Thunderstorms and Rain
10:35 PM 62.6 °F 59.5 °F 90% 29.94 in 4.0 mi NNE 9.2 mph 42.6 mph 0.22 in Rain , Thunderstorm Light Thunderstorms and Rain
10:55 PM 63.3 °F 60.6 °F 91% 29.93 in 10.0 mi NNE 6.9 mph - 0.22 in   Mostly Cloudy
11:15 PM 63.3 °F 60.3 °F 90% 29.95 in 10.0 mi NNE 8.1 mph - N/A   Scattered Clouds
11:35 PM 62.6 °F 59.5 °F 90% 29.94 in 10.0 mi North 6.9 mph - N/A   Scattered Clouds
11:55 PM 62.2 °F 59.4 °F 90% 29.93 in 10.0 mi NNE 4.6 mph - N/A   Overcast